Date String (YYYY-MM-DD hh:mm:ss) UTC,Instrument flags,Ambient pressure (hPa),Sample flow (lpm),Bypass flow (lpm),Sample temperature (°C),Ambient temperature (°C),ASC tube jacket temperature (°C),LED temperature (°C),Box temperature (°C),Sample RH (%),Span deviation,Mass concentration (μg/m³),Mass concentration (μg/m³),Mass concentration (μg/m³)
DateTimeUTC,F1_M11,P_M11,Q1_M11,Q2_M11,T1_M11,T2_M11,T3_M11,T4_M11,T5_M11,U1_M11,ZSPAN_M11,X0_M11,X2_M11,X1_M11
2022-09-28 15:00:00,,0833.9,5.01,0.00,29.0,27.5,00.0,37.7,30.8,22.7,0000.0,0011.86,0004.62,0003.85
2022-09-28 15:01:00,,0833.9,5.00,0.00,29.0,27.5,00.0,37.7,30.8,22.8,0000.0,0012.04,0004.65,0003.86
2022-09-28 15:02:00,,0833.9,5.00,0.00,29.0,27.5,00.0,37.7,30.9,22.9,0000.0,0011.69,0004.70,0003.86
2022-09-28 15:03:00,,0833.9,5.01,0.00,29.0,27.5,00.0,37.7,30.9,22.9,0000.0,0011.48,0004.72,0003.86
2022-09-28 15:04:00,,0833.9,5.00,0.00,29.0,27.6,00.0,37.7,30.9,22.8,0000.0,0011.61,0004.72,0003.86
2022-09-28 15:05:00,,0833.9,5.00,0.00,29.0,27.5,00.0,37.7,30.9,22.5,0000.0,0011.75,0004.71,0003.86
2022-09-28 15:06:00,,0833.9,5.01,0.00,29.0,27.5,00.0,37.7,30.9,22.5,0000.0,0011.17,0004.72,0003.84
2022-09-28 15:07:00,,0833.9,4.99,0.00,29.0,27.6,00.0,37.7,30.9,22.7,0000.0,0011.22,0004.70,0003.83
2022-09-28 15:08:00,,0833.9,5.00,0.00,29.0,27.6,00.0,37.7,30.9,22.8,0000.0,0011.27,0004.71,0003.82
2022-09-28 15:09:00,,0833.9,4.99,0.00,29.0,27.6,00.0,37.7,30.9,22.4,0000.0,0010.96,0004.71,0003.81
2022-09-28 15:10:00,,0833.9,5.00,0.00,29.0,27.5,00.0,37.7,30.9,22.3,0000.0,0011.35,0004.75,0003.80
2022-09-28 15:11:00,,0833.8,5.00,0.00,29.0,27.5,00.0,37.7,30.9,22.5,0000.0,0011.68,0004.79,0003.80
2022-09-28 15:12:00,,0833.9,5.00,0.00,29.0,27.6,00.0,37.8,30.9,22.5,0000.0,0011.78,0004.77,0003.77
2022-09-28 15:13:00,,0833.9,5.00,0.00,29.0,27.5,00.0,37.8,30.9,22.4,0000.0,0011.85,0004.71,0003.75
2022-09-28 15:14:00,,0833.9,4.99,0.00,29.0,27.5,00.0,37.8,30.9,22.3,0000.0,0011.96,0004.68,0003.74
2022-09-28 15:15:00,,0833.9,5.00,0.00,29.0,27.6,00.0,37.8,30.9,22.2,0000.0,0012.45,0004.67,0003.72
2022-09-28 15:16:00,,0833.9,4.99,0.00,29.0,27.6,00.0,37.8,30.9,22.2,0000.0,0012.52,0004.65,0003.71
2022-09-28 15:17:00,,0833.9,5.00,0.00,29.1,27.6,00.0,37.8,30.9,22.6,0000.0,0012.76,0004.63,0003.71
2022-09-28 15:18:00,,0833.9,5.00,0.00,29.1,27.6,00.0,37.8,30.9,22.6,0000.0,0012.36,0004.59,0003.70
2022-09-28 15:19:00,,0833.9,5.00,0.00,29.1,27.7,00.0,37.8,31.0,22.6,0000.0,0012.67,0004.56,0003.68
2022-09-28 15:20:00,,0833.9,5.01,0.00,29.1,27.7,00.0,37.8,31.0,21.9,0000.0,0012.80,0004.52,0003.67
2022-09-28 15:21:00,,0833.9,4.99,0.00,29.1,27.7,00.0,37.8,31.0,22.2,0000.0,0012.62,0004.49,0003.66
2022-09-28 15:22:00,,0833.9,5.00,0.00,29.1,27.7,00.0,37.8,31.0,22.4,0000.0,0012.08,0004.45,0003.64
2022-09-28 15:23:00,,0833.9,5.00,0.00,29.1,27.8,00.0,37.8,31.0,21.8,0000.0,0012.20,0004.42,0003.64
2022-09-28 15:24:00,,0833.9,4.99,0.00,29.1,27.8,00.0,37.8,31.0,21.8,0000.0,0011.95,0004.42,0003.63
2022-09-28 15:25:00,,0833.9,5.01,0.00,29.1,27.8,00.0,37.9,31.0,21.8,0000.0,0011.72,0004.38,0003.62
2022-09-28 15:26:00,,0833.8,4.99,0.00,29.1,27.8,00.0,37.9,31.0,22.0,0000.0,0010.89,0004.33,0003.62
2022-09-28 15:27:00,,0833.8,5.01,0.00,29.2,27.8,00.0,37.9,31.1,22.0,0000.0,0010.87,0004.37,0003.61
2022-09-28 15:28:00,,0833.9,4.99,0.00,29.2,27.9,00.0,37.9,31.1,22.5,0000.0,0011.32,0004.39,0003.60
2022-09-28 15:29:00,,0833.9,5.01,0.00,29.2,27.9,00.0,37.9,31.1,22.0,0000.0,0011.31,0004.40,0003.60
2022-09-28 15:30:00,,0833.9,4.99,0.00,29.2,27.9,00.0,37.9,31.1,21.7,0000.0,0011.00,0004.41,0003.60
2022-09-28 15:31:00,,0833.9,5.00,0.00,29.2,27.9,00.0,37.9,31.1,21.6,0000.0,0010.71,0004.40,0003.61
2022-09-28 15:32:00,,0833.9,4.99,0.00,29.2,28.0,00.0,37.9,31.2,21.2,0000.0,0010.74,0004.47,0003.62
2022-09-28 15:33:00,,0833.9,5.01,0.00,29.3,28.0,00.0,37.9,31.2,21.8,0000.0,0010.90,0004.47,0003.64
2022-09-28 15:34:00,,0833.9,4.99,0.00,29.3,28.0,00.0,37.9,31.2,21.1,0000.0,0011.16,0004.55,0003.65
2022-09-28 15:35:00,,0833.9,5.00,0.00,29.3,28.1,00.0,38.0,31.2,21.4,0000.0,0011.19,0004.55,0003.67
2022-09-28 15:36:00,,0833.9,5.01,0.00,29.3,28.1,00.0,38.0,31.2,21.3,0000.0,0011.25,0004.55,0003.68
2022-09-28 15:37:00,,0833.9,5.00,0.00,29.3,28.1,00.0,38.0,31.3,21.2,0000.0,0011.48,0004.59,0003.68
2022-09-28 15:38:00,,0833.9,4.99,0.00,29.4,28.1,00.0,38.0,31.3,21.8,0000.0,0011.40,0004.60,0003.70
2022-09-28 15:39:00,,0833.8,5.00,0.00,29.4,28.1,00.0,38.0,31.3,21.8,0000.0,0011.00,0004.56,0003.71
2022-09-28 15:40:00,,0833.9,5.00,0.00,29.4,28.2,00.0,38.0,31.3,21.6,0000.0,0011.40,0004.57,0003.72
2022-09-28 15:41:00,,0833.9,4.99,0.00,29.4,28.2,00.0,38.1,31.3,22.3,0000.0,0011.48,0004.60,0003.73
2022-09-28 15:42:00,,0833.8,4.99,0.00,29.4,28.2,00.0,38.1,31.4,22.4,0000.0,0011.69,0004.63,0003.74
2022-09-28 15:43:00,,0833.9,5.00,0.00,29.5,28.3,00.0,38.1,31.4,21.9,0000.0,0012.50,0004.67,0003.74
2022-09-28 15:44:00,,0833.9,4.99,0.00,29.5,28.3,00.0,38.1,31.4,21.5,0000.0,0013.04,0004.71,0003.75
2022-09-28 15:45:00,,0833.9,5.01,0.00,29.5,28.3,00.0,38.1,31.4,21.4,0000.0,0013.14,0004.73,0003.75
2022-09-28 15:46:00,,0834.0,4.99,0.00,29.5,28.3,00.0,38.1,31.4,21.4,0000.0,0012.50,0004.71,0003.77
2022-09-28 15:47:00,,0834.0,5.00,0.00,29.5,28.4,00.0,38.1,31.5,21.3,0000.0,0012.50,0004.71,0003.79
2022-09-28 15:48:00,,0833.9,5.00,0.00,29.6,28.4,00.0,38.2,31.5,21.3,0000.0,0013.03,0004.80,0003.82
2022-09-28 15:49:00,,0833.9,4.98,0.00,29.6,28.4,00.0,38.2,31.5,21.1,0000.0,0013.67,0004.89,0003.88
2022-09-28 15:50:00,,0834.0,5.01,0.00,29.6,28.4,00.0,38.2,31.5,21.2,0000.0,0013.90,0004.91,0003.90
2022-09-28 15:51:00,,0834.0,5.00,0.00,29.6,28.5,00.0,38.2,31.5,21.2,0000.0,0013.56,0004.99,0003.94
2022-09-28 15:52:00,,0834.0,5.01,0.00,29.7,28.5,00.0,38.2,31.6,21.2,0000.0,0013.53,0005.04,0003.96
2022-09-28 15:53:00,,0833.9,4.99,0.00,29.7,28.5,00.0,38.3,31.6,20.8,0000.0,0013.69,0005.09,0004.01
2022-09-28 15:54:00,,0833.9,5.00,0.00,29.7,28.6,00.0,38.3,31.6,20.6,0000.1,0013.48,0005.15,0004.08
2022-09-28 15:55:00,,0834.0,5.01,0.00,29.7,28.6,00.0,38.3,31.6,20.7,0002.1,0013.10,0005.18,0004.14
2022-09-28 15:56:00,,0834.0,5.00,0.00,29.8,28.6,00.0,38.3,31.7,20.8,0002.0,0013.31,0005.22,0004.20
2022-09-28 15:57:00,,0834.0,5.00,0.00,29.8,28.6,00.0,38.3,31.7,20.7,0002.8,0013.53,0005.29,0004.26
2022-09-28 15:58:00,,0834.0,5.00,0.00,29.8,28.7,00.0,38.4,31.7,20.5,0002.7,0013.53,0005.35,0004.30
2022-09-28 15:59:00,,0834.0,5.00,0.00,29.8,28.7,00.0,38.4,31.7,20.6,0002.0,0012.97,0005.38,0004.35
